This demonstration page uses our WeatherBlox Daily Observations layout. Learn more.

36.17497, -115.13722

Hourly Observations for June 18, 2020

Temp ( °F °C ) Dew Point ( °F °C ) Humidity (%) Winds ( mph kmh ) Pressure ( in mb ) Visibility ( mi km ) Precip ( " mm )
12:53 am 00:53 Clear 84 28.9 10 -12.2 6 6 NNW 9 15 29.83 1010 10 16.0934 0 0
1:53 am 01:53 Clear 81 27.2 8 -13.3 6 6 NNW 8 13 29.85 1011 10 16.0934 0 0
2:53 am 02:53 Clear 80 26.7 9 -12.8 6 6 NW 8 13 29.86 1011 10 16.0934 0 0
3:53 am 03:53 Clear 78 25.6 10 -12.2 7 7 N 8 13 29.87 1012 10 16.0934 0 0
4:53 am 04:53 Clear 78 25.6 13 -10.6 8 8 NNW 12 19 29.89 1012 10 16.0934 0 0
5:53 am 05:53 Sunny 77 25 17 -8.3 10 10 NNW 9 15 29.91 1013 10 16.0934 0 0
6:53 am 06:53 Sunny 78 25.6 19 -7.2 11 11 NNW 14 22 29.91 1013 10 16.0934 0 0
7:53 am 07:53 Sunny 80 26.7 20 -6.7 10 10 NW 15 24 29.92 1013 10 16.0934 0 0
8:53 am 08:53 Sunny 82 27.8 19 -7.2 9 9 WNW 7 11 29.93 1013 10 16.0934 0 0
9:53 am 09:53 Sunny 85 29.4 20 -6.7 9 9 undefined N/A 29.92 1013 10 16.0934 0 0
10:53 am 10:53 Sunny 86 30 20 -6.7 9 9 VRB 6 9 29.91 1013 10 16.0934 0 0
11:53 am 11:53 Sunny 89 31.7 20 -6.7 8 8 VRB 5 7 29.88 1012 10 16.0934 0 0
12:53 pm 12:53 Sunny 92 33.3 21 -6.1 7 7 E 6 9 29.86 1011 10 16.0934 0 0
1:53 pm 13:53 Sunny 91 32.8 20 -6.7 7 7 Calm 29.84 1011 10 16.0934 0 0
2:53 pm 14:53 Sunny 94 34.4 20 -6.7 7 7 NE 3 6 29.82 1010 10 16.0934 0 0
3:53 pm 15:53 Sunny 94 34.4 21 -6.1 7 7 S 9 15 29.79 1009 10 16.0934 0 0
4:53 pm 16:53 Sunny 95 35 20 -6.7 6 6 Calm 29.78 1008 10 16.0934 0 0
5:53 pm 17:53 Sunny 95 35 20 -6.7 6 6 VRB 5 7 29.76 1008 10 16.0934 0 0
6:53 pm 18:53 Sunny 94 34.4 21 -6.1 7 7 Calm 29.76 1008 10 16.0934 0 0
7:53 pm 19:53 Sunny 92 33.3 20 -6.7 7 7 E 6 9 29.77 1008 10 16.0934 0 0
8:53 pm 20:53 Clear 91 32.8 22 -5.6 8 8 Calm 29.78 1008 10 16.0934 0 0
9:53 pm 21:53 Clear 89 31.7 24 -4.4 9 9 NE 5 7 29.8 1009 10 16.0934 0 0
10:53 pm 22:53 Clear 85 29.4 30 -1.1 14 14 S 10 17 29.81 1010 10 16.0934 0 0
11:53 pm 23:53 Clear 81 27.2 29 -1.7 15 15 WNW 5 7 29.81 1009 10 16.0934 0 0

Powered by AerisWeather